• En España
  • Lista de países
  • Para 7 días
  • Temperatura del agua
  • Mapa Satelital
  • El tiempo en el mapa
  • Informadores
  • user-avatar
    Iniciar sesión

    Tiempo cada hora Tokarevo

    Hoy, 16 Agosto, Jueves

    Tiempo Temperatura Precipitaciones Viento Presión Humedad
    00:00 +17°C° 0 mm 3 mps 747 mmHg 97%
    01:00 +17°C° 0 mm 3 mps 747 mmHg 97%
    02:00 +17°C° 0 mm 2 mps 748 mmHg 97%
    03:00 +17°C° 0 mm 2 mps 748 mmHg 97%
    04:00 +17°C° 0 mm 2 mps 748 mmHg 97%
    05:00 +17°C° 0 mm 2 mps 749 mmHg 97%
    06:00 +17°C° 0 mm 2 mps 749 mmHg 95%
    07:00 +17°C° 0 mm 2 mps 750 mmHg 93%
    08:00 +18°C° 0 mm 2 mps 750 mmHg 91%
    09:00 +18°C° 0,1 mm 2 mps 751 mmHg 87%
    10:00 +19°C° 0,1 mm 2 mps 751 mmHg 83%
    11:00 +19°C° 0,1 mm 2 mps 751 mmHg 79%
    12:00 +20°C° 0,1 mm 2 mps 752 mmHg 73%
    13:00 +21°C° 0,1 mm 3 mps 752 mmHg 67%
    14:00 +22°C° 0,1 mm 3 mps 752 mmHg 60%
    15:00 +22°C° 0 mm 3 mps 752 mmHg 61%
    16:00 +22°C° 0 mm 3 mps 753 mmHg 61%
    17:00 +23°C° 0 mm 2 mps 753 mmHg 61%
    18:00 +20°C° 0 mm 2 mps 753 mmHg 67%
    19:00 +18°C° 0 mm 2 mps 753 mmHg 74%
    20:00 +16°C° 0 mm 2 mps 754 mmHg 80%
    21:00 +15°C° 0 mm 2 mps 754 mmHg 82%
    22:00 +15°C° 0 mm 2 mps 754 mmHg 84%
    23:00 +14°C° 0 mm 1 mps 755 mmHg 85%

    Mañana, 17 Agosto, Viernes

    Tiempo Temperatura Precipitaciones Viento Presión Humedad
    00:00 +14°C° 0 mm 1 mps 755 mmHg 86%
    01:00 +13°C° 0 mm 1 mps 755 mmHg 87%
    02:00 +13°C° 0 mm 1 mps 756 mmHg 88%
    03:00 +13°C° 0 mm 1 mps 756 mmHg 88%
    04:00 +12°C° 0 mm 1 mps 756 mmHg 88%
    05:00 +12°C° 0 mm 1 mps 757 mmHg 88%
    06:00 +15°C° 0 mm 1 mps 757 mmHg 78%
    07:00 +18°C° 0 mm 1 mps 757 mmHg 69%
    08:00 +19°C° 0 mm 2 mps 757 mmHg 60%
    09:00 +20°C° 0 mm 2 mps 757 mmHg 54%
    10:00 +23°C° 0 mm 2 mps 757 mmHg 48%
    11:00 +24°C° 0 mm 2 mps 757 mmHg 42%
    12:00 +24°C° 0 mm 2 mps 757 mmHg 40%
    13:00 +25°C° 0 mm 2 mps 757 mmHg 39%
    14:00 +25°C° 0 mm 2 mps 757 mmHg 38%
    15:00 +25°C° 0 mm 2 mps 757 mmHg 42%
    16:00 +24°C° 0 mm 2 mps 756 mmHg 46%
    17:00 +24°C° 0 mm 2 mps 756 mmHg 50%
    18:00 +21°C° 0 mm 2 mps 756 mmHg 57%
    19:00 +18°C° 0 mm 2 mps 757 mmHg 63%
    20:00 +16°C° 0 mm 1 mps 757 mmHg 70%
    21:00 +15°C° 0 mm 1 mps 757 mmHg 73%
    22:00 +15°C° 0 mm 1 mps 757 mmHg 75%
    23:00 +14°C° 0 mm 1 mps 757 mmHg 78%

    Pasado mañana, 18 Agosto, Sábado

    Tiempo Temperatura Precipitaciones Viento Presión Humedad
    00:00 +14°C° 0 mm 1 mps 757 mmHg 79%
    01:00 +13°C° 0 mm 1 mps 757 mmHg 80%
    02:00 +13°C° 0 mm 1 mps 757 mmHg 81%
    03:00 +13°C° 0 mm 1 mps 757 mmHg 82%
    04:00 +13°C° 0 mm 1 mps 757 mmHg 83%
    05:00 +13°C° 0 mm 1 mps 757 mmHg 83%
    06:00 +15°C° 0 mm 1 mps 758 mmHg 75%
    07:00 +18°C° 0 mm 1 mps 758 mmHg 68%
    08:00 +20°C° 0 mm 1 mps 758 mmHg 60%
    09:00 +21°C° 0 mm 2 mps 758 mmHg 55%
    10:00 +24°C° 0 mm 2 mps 757 mmHg 50%
    11:00 +25°C° 0 mm 2 mps 757 mmHg 44%
    12:00 +26°C° 0 mm 2 mps 757 mmHg 42%
    13:00 +26°C° 0 mm 2 mps 757 mmHg 40%
    14:00 +27°C° 0 mm 2 mps 756 mmHg 38%
    15:00 +26°C° 0 mm 1 mps 756 mmHg 42%
    16:00 +26°C° 0 mm 1 mps 756 mmHg 46%
    17:00 +25°C° 0 mm 1 mps 756 mmHg 50%
    18:00 +23°C° 0 mm 1 mps 756 mmHg 57%
    19:00 +21°C° 0 mm 1 mps 756 mmHg 63%
    20:00 +19°C° 0 mm 1 mps 756 mmHg 70%
    21:00 +18°C° 0 mm 1 mps 756 mmHg 72%
    22:00 +16°C° 0 mm 2 mps 756 mmHg 74%
    23:00 +16°C° 0 mm 2 mps 756 mmHg 77%

    19 Agosto, Domingo

    Tiempo Temperatura Precipitaciones Viento Presión Humedad
    00:00 +15°C° 0 mm 2 mps 756 mmHg 78%
    01:00 +15°C° 0 mm 1 mps 756 mmHg 80%
    02:00 +15°C° 0 mm 1 mps 756 mmHg 82%
    03:00 +15°C° 0 mm 1 mps 756 mmHg 83%
    04:00 +14°C° 0 mm 2 mps 755 mmHg 83%
    05:00 +14°C° 0 mm 2 mps 755 mmHg 84%
    06:00 +17°C° 0 mm 2 mps 755 mmHg 77%
    07:00 +19°C° 0 mm 2 mps 755 mmHg 69%
    08:00 +21°C° 0 mm 3 mps 755 mmHg 61%
    09:00 +22°C° 0 mm 3 mps 755 mmHg 56%
    10:00 +25°C° 0 mm 4 mps 754 mmHg 50%
    11:00 +26°C° 0 mm 4 mps 754 mmHg 45%
    12:00 +27°C° 0 mm 4 mps 754 mmHg 44%
    13:00 +27°C° 0 mm 4 mps 753 mmHg 43%
    14:00 +27°C° 0 mm 4 mps 753 mmHg 42%
    15:00 +27°C° 0 mm 4 mps 752 mmHg 46%
    16:00 +26°C° 0 mm 4 mps 752 mmHg 49%
    17:00 +26°C° 0 mm 3 mps 752 mmHg 52%
    18:00 +24°C° 0 mm 3 mps 751 mmHg 57%
    19:00 +22°C° 0 mm 3 mps 751 mmHg 61%
    20:00 +20°C° 0 mm 4 mps 751 mmHg 66%
    21:00 +20°C° 0 mm 4 mps 751 mmHg 67%
    22:00 +20°C° 0 mm 4 mps 751 mmHg 69%
    23:00 +19°C° 0 mm 4 mps 751 mmHg 70%

    20 Agosto, Lunes

    Tiempo Temperatura Precipitaciones Viento Presión Humedad
    00:00 +19°C° 0 mm 4 mps 751 mmHg 74%
    01:00 +18°C° 0 mm 3 mps 751 mmHg 78%
    02:00 +17°C° 0 mm 3 mps 750 mmHg 82%
    03:00 +17°C° 0,3 mm 3 mps 750 mmHg 86%
    04:00 +17°C° 0,3 mm 2 mps 750 mmHg 90%
    05:00 +16°C° 0,3 mm 2 mps 750 mmHg 94%
    06:00 +17°C° 0,1 mm 2 mps 751 mmHg 90%
    07:00 +19°C° 0,1 mm 2 mps 751 mmHg 87%
    08:00 +20°C° 0,1 mm 2 mps 751 mmHg 83%
    09:00 +21°C° 0,2 mm 2 mps 751 mmHg 79%
    10:00 +23°C° 0,2 mm 2 mps 751 mmHg 75%
    11:00 +24°C° 0,2 mm 2 mps 751 mmHg 72%
    12:00 +24°C° 0,3 mm 2 mps 751 mmHg 71%
    13:00 +23°C° 0,3 mm 2 mps 751 mmHg 70%
    14:00 +22°C° 0,3 mm 3 mps 751 mmHg 69%
    15:00 +23°C° 0 mm 2 mps 751 mmHg 69%
    16:00 +23°C° 0 mm 2 mps 751 mmHg 70%
    17:00 +21°C° 0 mm 2 mps 751 mmHg 70%
    18:00 +20°C° 0 mm 2 mps 751 mmHg 76%
    19:00 +20°C° 0 mm 1 mps 751 mmHg 81%
    20:00 +18°C° 0 mm 1 mps 751 mmHg 87%
    21:00 +18°C° 0 mm 1 mps 751 mmHg 89%
    22:00 +16°C° 0 mm 1 mps 751 mmHg 91%
    23:00 +15°C° 0 mm 1 mps 751 mmHg 94%

    21 Agosto, Martes

    Tiempo Temperatura Precipitaciones Viento Presión Humedad
    00:00 +15°C° 0 mm 1 mps 751 mmHg 93%
    01:00 +15°C° 0 mm 1 mps 751 mmHg 93%
    02:00 +14°C° 0 mm 0 mps 751 mmHg 93%
    03:00 +14°C° 0 mm 0 mps 751 mmHg 92%
    04:00 +14°C° 0 mm 0 mps 751 mmHg 91%
    05:00 +15°C° 0 mm 0 mps 751 mmHg 91%
    06:00 +16°C° 0 mm 0 mps 751 mmHg 84%
    07:00 +18°C° 0 mm 0 mps 752 mmHg 78%
    08:00 +19°C° 0 mm 0 mps 752 mmHg 71%
    09:00 +21°C° 0,1 mm 0 mps 752 mmHg 66%
    10:00 +23°C° 0,1 mm 0 mps 752 mmHg 60%
    11:00 +24°C° 0,1 mm 0 mps 752 mmHg 54%
    12:00 +26°C° 0,1 mm 1 mps 751 mmHg 53%
    13:00 +26°C° 0,1 mm 1 mps 751 mmHg 52%
    14:00 +26°C° 0,1 mm 1 mps 751 mmHg 50%
    15:00 +26°C° 0 mm 1 mps 751 mmHg 53%
    16:00 +25°C° 0 mm 1 mps 751 mmHg 57%
    17:00 +25°C° 0 mm 1 mps 750 mmHg 60%
    18:00 +23°C° 0 mm 1 mps 750 mmHg 65%
    19:00 +21°C° 0 mm 1 mps 750 mmHg 71%
    20:00 +18°C° 0 mm 2 mps 750 mmHg 76%
    21:00 +18°C° 0 mm 2 mps 750 mmHg 78%
    22:00 +17°C° 0 mm 2 mps 750 mmHg 79%
    23:00 +17°C° 0 mm 2 mps 750 mmHg 80%
    Mostrar más